• Em Portugal
  • Lista de países
  • Para 7 dias
  • Temperatura da água
  • Mapas de satélite
  • Mapa do tempo
  • Widgets de tempo
  • user-avatar
    Iniciar Sessão

    Previsão horária em Kolce

    Hoje, 23 Abril, Segunda-feira

    Tempo Temperatura Precipitação Vento Pressão Humidade
    00:00 +12°C° 0 mm 2 m/s 712 mmHg 74%
    01:00 +12°C° 0 mm 2 m/s 712 mmHg 71%
    02:00 +12°C° 0,1 mm 2 m/s 712 mmHg 73%
    03:00 +12°C° 0,1 mm 2 m/s 712 mmHg 75%
    04:00 +12°C° 0,1 mm 2 m/s 711 mmHg 77%
    05:00 +13°C° 0 mm 2 m/s 711 mmHg 77%
    06:00 +14°C° 0 mm 2 m/s 711 mmHg 76%
    07:00 +15°C° 0 mm 2 m/s 711 mmHg 75%
    08:00 +17°C° 0 mm 3 m/s 712 mmHg 69%
    09:00 +19°C° 0 mm 3 m/s 712 mmHg 64%
    10:00 +21°C° 0 mm 4 m/s 712 mmHg 58%
    11:00 +21°C° 0,3 mm 4 m/s 712 mmHg 55%
    12:00 +22°C° 0,3 mm 4 m/s 712 mmHg 53%
    13:00 +22°C° 0,3 mm 4 m/s 712 mmHg 50%
    14:00 +21°C° 0,4 mm 4 m/s 712 mmHg 56%
    15:00 +20°C° 0,4 mm 4 m/s 712 mmHg 61%
    16:00 +19°C° 0,4 mm 4 m/s 712 mmHg 67%
    17:00 +18°C° 0,2 mm 3 m/s 712 mmHg 72%
    18:00 +17°C° 0,2 mm 3 m/s 711 mmHg 78%
    19:00 +15°C° 0,2 mm 2 m/s 711 mmHg 83%
    20:00 +14°C° 0,1 mm 2 m/s 712 mmHg 86%
    21:00 +13°C° 0,1 mm 2 m/s 712 mmHg 88%
    22:00 +13°C° 0,1 mm 2 m/s 712 mmHg 91%
    23:00 +12°C° 0 mm 2 m/s 712 mmHg 91%

    Amanhã, 24 Abril, Terça-feira

    Tempo Temperatura Precipitação Vento Pressão Humidade
    00:00 +12°C° 0 mm 2 m/s 713 mmHg 92%
    01:00 +10°C° 0 mm 2 m/s 713 mmHg 93%
    02:00 +9°C° 0 mm 2 m/s 713 mmHg 93%
    03:00 +9°C° 0 mm 2 m/s 713 mmHg 93%
    04:00 +8°C° 0 mm 2 m/s 713 mmHg 93%
    05:00 +9°C° 0 mm 2 m/s 714 mmHg 88%
    06:00 +10°C° 0 mm 2 m/s 714 mmHg 83%
    07:00 +12°C° 0 mm 2 m/s 714 mmHg 79%
    08:00 +13°C° 0 mm 3 m/s 714 mmHg 72%
    09:00 +14°C° 0 mm 3 m/s 715 mmHg 65%
    10:00 +15°C° 0 mm 4 m/s 715 mmHg 59%
    11:00 +17°C° 0 mm 4 m/s 715 mmHg 56%
    12:00 +18°C° 0 mm 4 m/s 714 mmHg 54%
    13:00 +19°C° 0 mm 4 m/s 714 mmHg 51%
    14:00 +19°C° 0 mm 4 m/s 714 mmHg 51%
    15:00 +19°C° 0 mm 4 m/s 713 mmHg 50%
    16:00 +19°C° 0 mm 4 m/s 713 mmHg 50%
    17:00 +17°C° 0 mm 4 m/s 713 mmHg 56%
    18:00 +14°C° 0 mm 3 m/s 713 mmHg 62%
    19:00 +14°C° 0 mm 2 m/s 712 mmHg 68%
    20:00 +13°C° 0 mm 2 m/s 712 mmHg 70%
    21:00 +12°C° 0 mm 2 m/s 713 mmHg 72%
    22:00 +10°C° 0 mm 2 m/s 713 mmHg 74%
    23:00 +10°C° 0 mm 2 m/s 713 mmHg 75%

    Depois de amanhã, 25 Abril, Quarta-feira

    Tempo Temperatura Precipitação Vento Pressão Humidade
    00:00 +10°C° 0 mm 1 m/s 712 mmHg 77%
    01:00 +10°C° 0 mm 1 m/s 712 mmHg 79%
    02:00 +9°C° 0 mm 1 m/s 712 mmHg 80%
    03:00 +9°C° 0 mm 1 m/s 712 mmHg 81%
    04:00 +8°C° 0 mm 2 m/s 712 mmHg 82%
    05:00 +9°C° 0 mm 2 m/s 712 mmHg 79%
    06:00 +11°C° 0 mm 3 m/s 712 mmHg 76%
    07:00 +12°C° 0 mm 4 m/s 712 mmHg 73%
    08:00 +14°C° 0 mm 4 m/s 712 mmHg 68%
    09:00 +15°C° 0 mm 5 m/s 712 mmHg 63%
    10:00 +17°C° 0 mm 6 m/s 712 mmHg 58%
    11:00 +19°C° 0 mm 6 m/s 711 mmHg 55%
    12:00 +20°C° 0 mm 7 m/s 711 mmHg 53%
    13:00 +21°C° 0 mm 7 m/s 711 mmHg 50%
    14:00 +20°C° 0,1 mm 7 m/s 711 mmHg 52%
    15:00 +20°C° 0,1 mm 6 m/s 710 mmHg 54%
    16:00 +20°C° 0,1 mm 6 m/s 710 mmHg 55%
    17:00 +17°C° 0,3 mm 5 m/s 710 mmHg 63%
    18:00 +15°C° 0,3 mm 4 m/s 709 mmHg 70%
    19:00 +13°C° 0,3 mm 3 m/s 709 mmHg 78%
    20:00 +13°C° 0,1 mm 3 m/s 710 mmHg 82%
    21:00 +12°C° 0,1 mm 3 m/s 710 mmHg 86%
    22:00 +12°C° 0,1 mm 2 m/s 710 mmHg 90%
    23:00 +10°C° 0 mm 2 m/s 711 mmHg 91%

    26 Abril, Quinta-feira

    Tempo Temperatura Precipitação Vento Pressão Humidade
    00:00 +10°C° 0 mm 2 m/s 711 mmHg 92%
    01:00 +9°C° 0 mm 2 m/s 711 mmHg 93%
    02:00 +9°C° 0 mm 2 m/s 711 mmHg 94%
    03:00 +8°C° 0 mm 2 m/s 711 mmHg 94%
    04:00 +8°C° 0 mm 2 m/s 711 mmHg 95%
    05:00 +9°C° 0,1 mm 2 m/s 711 mmHg 91%
    06:00 +10°C° 0,1 mm 3 m/s 712 mmHg 87%
    07:00 +11°C° 0,1 mm 3 m/s 712 mmHg 84%
    08:00 +12°C° 0,1 mm 4 m/s 712 mmHg 75%
    09:00 +13°C° 0,1 mm 5 m/s 712 mmHg 67%
    10:00 +14°C° 0,1 mm 6 m/s 712 mmHg 59%
    11:00 +14°C° 0 mm 6 m/s 712 mmHg 57%
    12:00 +14°C° 0 mm 6 m/s 712 mmHg 55%
    13:00 +14°C° 0 mm 6 m/s 712 mmHg 52%
    14:00 +14°C° 0,1 mm 6 m/s 712 mmHg 53%
    15:00 +13°C° 0,1 mm 6 m/s 712 mmHg 54%
    16:00 +13°C° 0,1 mm 5 m/s 713 mmHg 54%
    17:00 +12°C° 0,1 mm 4 m/s 713 mmHg 59%
    18:00 +10°C° 0,1 mm 3 m/s 713 mmHg 64%
    19:00 +9°C° 0,1 mm 3 m/s 713 mmHg 68%
    20:00 +7°C° 0 mm 2 m/s 713 mmHg 70%
    21:00 +6°C° 0 mm 2 m/s 714 mmHg 71%
    22:00 +5°C° 0 mm 2 m/s 714 mmHg 73%
    23:00 +5°C° 0 mm 2 m/s 714 mmHg 73%

    27 Abril, Sexta-feira

    Tempo Temperatura Precipitação Vento Pressão Humidade
    00:00 +6°C° 0 mm 1 m/s 714 mmHg 74%
    01:00 +5°C° 0 mm 1 m/s 714 mmHg 74%
    02:00 +5°C° 0 mm 1 m/s 714 mmHg 75%
    03:00 +5°C° 0 mm 1 m/s 714 mmHg 76%
    04:00 +3°C° 0 mm 2 m/s 714 mmHg 77%
    05:00 +6°C° 0 mm 1 m/s 714 mmHg 74%
    06:00 +7°C° 0 mm 1 m/s 715 mmHg 70%
    07:00 +8°C° 0 mm 1 m/s 715 mmHg 67%
    08:00 +9°C° 0 mm 2 m/s 715 mmHg 62%
    09:00 +10°C° 0 mm 2 m/s 715 mmHg 56%
    10:00 +12°C° 0 mm 2 m/s 716 mmHg 51%
    11:00 +13°C° 0 mm 2 m/s 715 mmHg 49%
    12:00 +14°C° 0 mm 1 m/s 715 mmHg 47%
    13:00 +14°C° 0 mm 1 m/s 715 mmHg 45%
    14:00 +14°C° 0 mm 1 m/s 714 mmHg 45%
    15:00 +14°C° 0 mm 1 m/s 714 mmHg 45%
    16:00 +15°C° 0 mm 1 m/s 714 mmHg 45%
    17:00 +13°C° 0 mm 2 m/s 713 mmHg 53%
    18:00 +10°C° 0 mm 2 m/s 713 mmHg 61%
    19:00 +9°C° 0 mm 2 m/s 713 mmHg 68%
    20:00 +8°C° 0 mm 2 m/s 713 mmHg 71%
    21:00 +7°C° 0 mm 2 m/s 713 mmHg 73%
    22:00 +6°C° 0 mm 2 m/s 713 mmHg 75%
    23:00 +6°C° 0 mm 2 m/s 712 mmHg 76%

    28 Abril, Sábado

    Tempo Temperatura Precipitação Vento Pressão Humidade
    00:00 +6°C° 0 mm 2 m/s 712 mmHg 76%
    01:00 +5°C° 0 mm 2 m/s 712 mmHg 76%
    02:00 +5°C° 0 mm 2 m/s 711 mmHg 75%
    03:00 +5°C° 0 mm 2 m/s 711 mmHg 75%
    04:00 +5°C° 0 mm 2 m/s 711 mmHg 74%
    05:00 +7°C° 0 mm 2 m/s 711 mmHg 71%
    06:00 +8°C° 0 mm 2 m/s 711 mmHg 69%
    07:00 +10°C° 0 mm 3 m/s 711 mmHg 66%
    08:00 +12°C° 0 mm 3 m/s 711 mmHg 64%
    09:00 +14°C° 0 mm 4 m/s 711 mmHg 61%
    10:00 +16°C° 0 mm 5 m/s 711 mmHg 59%
    11:00 +18°C° 0 mm 4 m/s 711 mmHg 59%
    12:00 +18°C° 0 mm 4 m/s 710 mmHg 59%
    13:00 +19°C° 0 mm 4 m/s 710 mmHg 58%
    14:00 +19°C° 0 mm 4 m/s 710 mmHg 60%
    15:00 +19°C° 0 mm 3 m/s 709 mmHg 62%
    16:00 +19°C° 0 mm 3 m/s 709 mmHg 65%
    17:00 +17°C° 0 mm 2 m/s 709 mmHg 69%
    18:00 +16°C° 0 mm 2 m/s 708 mmHg 74%
    19:00 +15°C° 0 mm 2 m/s 708 mmHg 79%
    20:00 +14°C° 0 mm 2 m/s 708 mmHg 81%
    21:00 +14°C° 0 mm 2 m/s 708 mmHg 83%
    22:00 +13°C° 0 mm 2 m/s 708 mmHg 85%
    23:00 +13°C° 0,2 mm 2 m/s 707 mmHg 87%
    Mostrar mais